Hourly Data Report for October 29, 2016

All times are specified in Local Standard Time (LST). Add 1 hour to adjust for Daylight Saving Time where and when it is observed.

CLYDE RIVER A
NUNAVUT

70°29'09.000" N
68°31'01.000" W
26.50 m
2400804
71090
YCY

Download Data

Hourly Data (October 2016)
Hourly Data Report for October 29, 2016
Temp Definition
°C
Dew Point Temp Definition
°C
Rel Hum Definition
%
Wind Dir Definition
10's deg

Wind Spd Definition
km/h
Visibility Definition
km
Stn Press Definition
kPa
Hmdx Definition


Wind Chill Definition


Weather Definition


TIME
00:00 Legend Double Dagger -3.0 -5.7 82 10 24 16.1 100.79   -10 LegendNANA
01:00 Legend Double Dagger -2.9 -5.4 83 10 26 16.1 100.76   -10 LegendNANA
02:00 Legend Double Dagger -2.7 -4.9 85 10 28 16.1 100.73   -10 LegendNANA
03:00 Legend Double Dagger -2.4 -5.1 82 9 26 16.1 100.69   -9 LegendNANA
04:00 Legend Double Dagger -1.9 -4.4 83 10 34 16.1 100.64   -9 LegendNANA
05:00 Legend Double Dagger -1.6 -3.2 89 10 35 16.1 100.57   -9 LegendNANA
06:00 Legend Double Dagger -1.3 -3.2 87 10 37 16.1 100.54   -9 LegendNANA
07:00 Legend Double Dagger -1.5 -2.9 90 10 41 6.4 100.49   -9 Snow
08:00 Legend Double Dagger -1.5 -2.3 94 10 43 8.1 100.46   -10 Snow
09:00 Legend Double Dagger -1.6 -2.4 94 10 46 2.8 100.42   -10 Snow
10:00 Legend Double Dagger -1.6 -2.2 96 10 43 1.2 100.37   -10 Snow
11:00 Legend Double Dagger -1.5 -2.1 96 10 46 1.2 100.34   -10 Snow
12:00 Legend Double Dagger -1.4 -2.0 96 10 41 1.2 100.35   -9 Snow
13:00 Legend Double Dagger -1.3 -1.9 96 10 41 1.2 100.33   -9 Snow
14:00 Legend Double Dagger -1.2 -1.8 96 10 43 2.4 100.30   -9 Snow
15:00 Legend Double Dagger -1.2 -1.9 95 11 46 1.6 100.30   -9 Snow
16:00 Legend Double Dagger -1.2 -1.9 95 12 35 2.0 100.31   -9 Snow
17:00 Legend Double Dagger -1.1 -1.7 96 10 48 1.6 100.30   -9 Snow
18:00 Legend Double Dagger -1.3 -1.9 96 10 54 2.0 100.27   -10 Snow
19:00 Legend Double Dagger -1.5 -2.2 95 10 50 2.0 100.29   -10 Snow
20:00 Legend Double Dagger -1.4 -2.3 94 9 48 3.2 100.29   -10 Snow
21:00 Legend Double Dagger -1.4 -2.7 91 9 48 4.8 100.27   -10 Snow
22:00 Legend Double Dagger -1.5 -3.0 90 9 46 4.8 100.24   -10 Snow
23:00 Legend Double Dagger -1.5 -3.0 90 8 48 8.1 100.21   -10 Snow

Notes on Data Quality.

Legend

  • E = Estimated
  • M = Missing
  • NA = Not Available
  • ‡ = Partner data that is not subject to review by the National Climate Archives
Date modified: